Other Public Products
Issued by NWS Grand Forks, ND

Home | Current Version | Previous Version | Graphics & Text | Print | Product List | Glossary On
Versions: 1 2 3 4 5 6 7 8 9 10 11 12 13 14 15 16 17 18 19 20 21 22 23 24 25 26 27 28 29 30 31 32 33 34 35 36 37 38 39 40 41 42 43 44 45 46 47 48 49 50
000
FPUS83 KFGF 210931
OPUFGF
PRAIRIE TO PINES WEATHER ROUNDUP
NATIONAL WEATHER SERVICE EASTERN NORTH DAKOTA/GRAND FORKS ND
400 AM CDT SAT OCT 21 2017

 **SATELLITE DATA USED TO AUGMENT SKY COVER AT AUTOMATED STATIONS**
 *****  WEATHER ACROSS EASTERN NORTH DAKOTA  *****

CITY           SKY/WX    TMP DP  RH WIND       PRES   REMARKS
GRAND FORKS    FAIR      67  59  75 S18G31    29.32F
GRAND FORKS AF FAIR      64  57  77 S21G29    29.32S
GRAND CITY NWS NOT AVBL
BUXTON           N/A     64  60  85 S17         N/A
DEVILS LAKE    FAIR      61  54  77 S17       29.27F
FARGO          FAIR      65  58  78 S21G35    29.38F
WAHPETON ARPT  NOT AVBL
$$

 *****  WEATHER ACROSS CENTRAL AND WESTERN NORTH DAKOTA  *****

CITY           SKY/WX    TMP DP  RH WIND       PRES   REMARKS
JAMESTOWN      FAIR      59  55  87 S13       29.32S
BISMARCK       FAIR      56  34  43 W8        29.37R
MINOT          FAIR      57  33  40 W17       29.27R
MINOT AFB      FAIR      56  34  44 NW20G26   29.24R
GARRISON         N/A     54  34  46 W14G24    29.32R
WILLISTON        N/A    N/A N/A N/A MISG      29.39R
DICKINSON      FAIR      48  39  71 W24G37    29.43R
HETTINGER      MOCLDY    47  36  65 W20G30    29.54R
$$

 *****  OTHER OBSERVATIONS NORTHEAST NORTH DAKOTA  *****

CITY           SKY/WX    TMP DP  RH WIND       PRES   REMARKS
WALHALLA       FAIR     N/A N/A N/A S15       29.27S
LANGDON        FAIR      61  59  94 S21       29.28F
CAVALIER       FAIR      63  59  88 S16G24    29.28S
GRAFTON        FAIR      64  57  77 S18G28    29.32S
CANDO          FAIR      55  55 100 S10G16    29.26F
FORT TOTTEN      N/A     60  53  78 S13       29.95S
ROLLA          FAIR      52  52 100 S13       29.22F
RUGBY            N/A     54  41  62 W14       29.23R
 ***** THE ABOVE OBSERVATIONS ARE NON NWS ARE NOT QUALITY
        CONTROLLED AND MAY MIS-REPORT RAIN FOR SNOW...
$$

 *****  OTHER OBSERVATIONS SOUTHEAST NORTH DAKOTA *****

CITY           SKY/WX    TMP DP  RH WIND       PRES   REMARKS
COOPERSTOWN    FAIR      61  57  88 S15       29.32F
VALLEY CITY    FAIR      63  63 100 S14G20    29.36F
OAKES          NOT AVBL
GWINNER        SUNNY     66  57  72 S16G23    29.38R
SHEYENNE NWR     N/A     65  59  80 S14       29.95S
BUFFALO          N/A     62  56  81 S12         N/A
WYNDMERE       NOT AVBL
 ***** THE ABOVE OBSERVATIONS ARE NON NWS ARE NOT QUALITY
       CONTROLLED AND MAY MIS-REPORT RAIN FOR SNOW...
$$

  *****  WEATHER ACROSS NORTHERN MINNESOTA  *****

CITY           SKY/WX    TMP DP  RH WIND       PRES   REMARKS
FLAG ISLAND    FAIR      57  50  77 S18       29.42S
WARROAD        FAIR      64  57  77 SE16G24   29.42F
ROSEAU         FAIR      66  57  72 S21G26    29.39F
HALLOCK        FAIR      66  57  72 S23G29    29.31S
THF RVR FALLS  FAIR      65  57  75 S22       29.41F
HALSTAD        NOT AVBL
FOSSTON        FAIR      63  54  72 S18G26    29.44F
BAUDETTE       MOCLDY    64  52  64 S17G26    29.48F
WASKISH        FAIR      57  57 100 SE10G16   29.49F
CROOKSTON      FAIR      66  57  72 S25G32    29.36F
$$
  *****  WEATHER ACROSS CENTRAL AND WEST MINNESOTA  *****

CITY           SKY/WX    TMP DP  RH WIND       PRES   REMARKS
BEMIDJI        MOCLDY    62  56  80 S18G25    29.50F
PARK RAPIDS    CLOUDY    63  56  78 S18G31    29.53F
WADENA         FAIR      63  55  77 S18G25    29.51F
DETROIT LAKES  FAIR      63  55  77 S18       29.48F
MOORHEAD       FAIR      64  57  77 S23G32    29.40S
FERGUS FALLS   FAIR      63  55  77 S17G26    29.46F
ELBOW LAKE     FAIR      62  57  83 SE18G29   29.48F
MORRIS MN      FAIR      63  57  82 S15G22    29.49F
STAPLES        CLOUDY    63  54  72 S14       29.55F
WHEATON        FAIR      64  55  72 SE14      29.45F
$$
  *****  WEATHER ELSEWHERE ACROSS MINNESOTA  *****

CITY           SKY/WX    TMP DP  RH WIND       PRES   REMARKS
DULUTH         FAIR      61  51  70 S15       29.69F
INTRNTL FALLS  FAIR      64  48  56 VRB7G20   29.55F
ELY            FAIR      61  46  59 S8        29.67F
CLOQUET        FAIR      63  48  59 S8G16     29.68F
BRAINERD       FAIR      62  55  77 S15G22    29.61F
HIBBING        FAIR      60  50  69 S8        29.64F
ALEXANDRIA     FAIR      63  56  78 S21G29    29.55F
SAINT CLOUD    MOCLDY    63  55  75 S16       29.63F
MINNEAPOLIS    LGT RAIN  63  53  70 S16       29.70F
$$

  *****  WEATHER ACROSS SOUTH DAKOTA  *****

CITY           SKY/WX    TMP DP  RH WIND       PRES   REMARKS
SIOUX FALLS    FAIR      66  59  78 S20G29    29.51F
BROOKINGS      FAIR      63  57  81 S18G24    29.50F
WATERTOWN      FAIR      62  58  86 S20G26    29.46S
HURON          FAIR      65  58  78 S13       29.42S
SISSETON         N/A     67  58  72 S17G24    29.41F
ABERDEEN       FAIR      63  58  83 S16       29.38S
MITCHELL       FAIR      67  58  72 S17       29.44F
PIERRE         FAIR      63  46  54 NW25      29.39S
MOBRIDGE       FAIR      54  47  77 W8        29.41R
RAPID CITY     CLOUDY    52  37  56 N24G35    29.56R
$$

  *****  SOME WEATHER IN NEARBY STATES *****

CITY           SKY/WX    TMP DP  RH WIND       PRES   REMARKS
GLASGOW MT     CLOUDY    45  38  76 W28G38    29.48S
GREAT FALLS MT FAIR      35  24  64 SW15      29.73R
CHEYENNE WY    CLOUDY    41  17  38 W31G45    29.70R
SCOTTSBLUFF NE FAIR      51  24  34 W17G26    29.67R
OMAHA NE       CLOUDY    66  60  81 S21G32    29.63F
DES MOINES IA  MOCLDY    64  56  75 S20       29.76F
DAVENPORT IA   MOCLDY    64  51  62 S15G23    29.97F
CHICAGO IL     MOCLDY    63  48  58 S12       30.05S
EAU CLAIRE WI  MOCLDY    63  47  55 S8        29.79F
LA CROSSE WI   FAIR      65  50  58 S15       29.83F
$$

  *****  SOME NATIONAL WEATHER *****

CITY           SKY/WX    TMP DP  RH WIND       PRES   REMARKS
LA GUARDIA NY  FAIR      61  43  51 N3        30.26R
RALEIGH NC     FAIR      50  50 100 CALM      30.27R
ATLANTA GA     MOCLDY    57  48  72 E6        30.23R
NEW ORLEANS LA MOCLDY    75  71  87 E10       30.01F
OKLAHOMA CITY  MOCLDY    68  65  90 S15G26    29.80F
ALBUQUERQUE NM CLOUDY    61  35  37 VRB6      29.91S
SALT LAKE CITY MOCLDY    42  30  62 SW3       30.06R
LOS ANGELES CA FAIR      64  36  35 N13G20    29.98R
BOISE ID       FAIR      35  30  82 E6        30.08R
SEATTLE WA     CLOUDY    47  39  74 SE7       29.90F
$$

*** WEATHER ACROSS MANITOBA...SASKATCHEWAN AND ONTARIO ***
                ***ONTARIO***

CITY           SKY/WX    TMP DP  RH WIND       PRES   REMARKS
GERALDTON      PTCLDY    41  39  93 SE2       29.81F
THUNDER BAY    CLOUDY    52  48  87 NE3       29.76S
SIOUX LOOKOUT  MOCLDY    61  46  59 SE8       29.58F
TORONTO        CLEAR     52  41  66 SE6       30.20R
BIG TROUT LK   MOCLDY    39  32  75 SE13G24   29.71F
PICKLE LAKE    NOT AVBL
DRYDEN         CLOUDY    61  46  59 SE16G23   29.55F
KENORA         MOCLDY    63  50  63 S14G24    29.46
$$
                *** MANITOBA***

CITY           SKY/WX    TMP DP  RH WIND       PRES   REMARKS
BRANDON        CLEAR     46  45  93 E8        29.18F
DAUPHIN        MOCLDY    39  37  93 W3        29.18S
ISLAND LAKE    MOCLDY    50  41  71 SE18      29.39F
PILOT MOUND      N/A     59  52  77 S20         N/A
THE PAS        CLEAR     41  37  87 NE3       29.22S
THOMPSON       CLOUDY    39  34  81 NE10      29.36F
WINNIPEG       PTCLDY    66  55  68 S24G31    29.27F
LYNN LAKE      CLOUDY    36  36 100 E8        29.38S
CHURCHILL      MOCLDY    36  32  87 SE25G35   29.69F
GILLAM         CLOUDY    37  32  81 E9G17     29.51F
$$
                ***SASKATCHEWAN***

CITY           SKY/WX    TMP DP  RH WIND       PRES   REMARKS
ESTEVAN        MOCLDY    50  34  53 W10       29.28R
KINDERSLEY     LGT RAIN  41  39  93 NW22G35   29.43R
LLOYDMINSTER   LGT RAIN  41  37  87 NW13      29.44R
PRINCE ALBERT  CLOUDY    37  34  87 NW7       29.30R
REGINA         CLOUDY    43  36  75 NW16      29.25F
YORKTON        CLOUDY    43  37  81 VRB2      29.17R



USA.gov is the U.S. government's official web portal to all federal, state and local government web resources and services.